Regional Weather Roundup
Issued by NWS

Home | Current Version | Previous Version | Text Only | Print | Product List | Glossary On
Versions: 1 2 3 4 5 6 7 8 9 10 11 12 13 14 15 16 17 18 19 20 21 22 23 24 25 26 27 28 29 30 31 32 33 34 35 36 37 38 39 40 41 42 43 44 45 46 47 48 49 50
994
ASUS43 KLSX 212207
RWRMO

WEATHER SUMMARY FOR MISSOURI
NATIONAL WEATHER SERVICE SPRINGFIELD MO
500 PM CDT SAT OCT 21 2017

NOTE: "FAIR" INDICATES FEW OR NO CLOUDS BELOW 12,000 FEET WITH NO
       SIGNIFICANT WEATHER AND/OR OBSTRUCTIONS TO VISIBILITY.
       CURRENT SKY AND/OR WEATHER CONDITIONS ARE NOT AVAILABLE FOR
       CHILLICOTHE AND FARMINGTON.

MOZ001>031-035>038-043-044-053-054-212300-
...NORTHERN AND WESTERN MISSOURI...

CITY           SKY/WX    TMP DP  RH WIND       PRES   REMARKS
KANSAS CTY INT CLOUDY    74  65  73 S15       29.80S
KANSAS C DTWN  CLOUDY    77  65  66 S9        29.80S
LEE`S SUMMIT   CLOUDY    75  65  70 S12       29.83S
ST JOSEPH      TSTM      74  65  73 S14       29.78R
CHILLICOTHE      N/A     74  65  73 S3        29.83F
KIRKSVILLE     CLOUDY    76  64  66 S13       29.87S

$$
MOZ066>068-077>081-088>096-101>105-212300-
...SOUTHWEST MISSOURI...

CITY           SKY/WX    TMP DP  RH WIND       PRES   REMARKS
SPRINGFIELD    CLOUDY    79  63  57 S17       29.90F
JOPLIN         SUNNY     78  65  63 S16G29    29.85F
BRANSON        PTSUNNY   73  63  68 S14G22    29.96S

$$
MOZ032>034-039>042-045>050-055>058-069>072-212300-
...CENTRAL MISSOURI...

CITY           SKY/WX    TMP DP  RH WIND       PRES   REMARKS
COLUMBIA       MOSUNNY   77  64  64 S17G24    29.91S
JEFFERSON CITY MOSUNNY   78  62  57 S13       29.90F
ROLLA          CLOUDY    75  63  66 S17G23    29.96S
SEDALIA        PTSUNNY   79  65  62 S16G26    29.87S
WHITEMAN AFB   PTSUNNY   76  64  65 S13       29.80S
WARRENSBURG    CLOUDY    75  61  60 S8        29.83S
OSAGE BEACH    MOSUNNY   76  63  64 S9        29.92F

$$
MOZ051-052-059>065-212300-
...EAST CENTRAL MISSOURI...

CITY           SKY/WX    TMP DP  RH WIND       PRES   REMARKS
ST LOUIS INTL  MOSUNNY   79  61  53 S16G23    29.97S
SPIRIT OF STL  PTSUNNY   80  61  52 S8G21     29.95S
ST CHARLES     CLOUDY    79  61  53 S14       29.96R

$$
MOZ072>076-082>087-097>100-106>115-212300-
...SOUTH CENTRAL AND SOUTHEAST MISSOURI...

CITY           SKY/WX    TMP DP  RH WIND       PRES   REMARKS
CAPE GIRARDEAU SUNNY     80  58  46 S15G24    30.04S
FARMINGTON     CLOUDY    76  62  62 S13G18    30.03R
POPLAR BLUFF   LGT RAIN  82  60  47 S12G23    30.01S
WEST PLAINS    CLOUDY    75  64  68 S12G18    30.01S

$$



USA.gov is the U.S. government's official web portal to all federal, state and local government web resources and services.